Location: Pitton
(51.0667°N, 1.7000°W)
Time: 10:48:36
(UTC+00:00)

ARGOS - Pass Details

Date: 17 September 2019
Orbit: 821 x 834 km, 98.5° (Epoch: 18 October)

Event Time Altitude Azimuth Distance (km) Brightness Sun altitude
Exits shadow 19:31:11 - 147° (SSE) 2,487 5.2 -12.2°
Reaches altitude 10° 19:31:22 10° 146° (SSE) 2,419 5.1 -12.2°
Maximum altitude 19:36:36 58° 69° (ENE) 960 3.3 -13.0°
Drops below altitude 10° 19:41:54 10° 351° (N) 2,443 6.0 -13.8°
Sets 19:44:18 0° 348° (NNW) 3,382 6.8 -14.1°
